USA 167

Last updated on Sat Aug 22 2026 00:02:55 GMT+0000 (Coordinated Universal Time)

1 27691U 03008A 26233.03034758 .00000002 00000+0 00000+0 0 9992 2 27691 11.0868 42.8094 0002854 303.4825 231.8224 1.00271508 7421
UTC large
Height (km)
Speed (km/s)
/
Latitude / Longitude
Inclination (degrees)
Orbital Period (minutes)
Azimuth
Elevation
Range (km)
Doppler Factor

Next 0 passes for location: London (51.5072 / 0.1276)

No passes found over London.
USA 167